Zurück zum Katalog

STARLINK-5414

AktivKommunikationVLEO
NORAD 54809·PAYLOAD·🇺🇸 United States

Gestartet Dec 17, 2022 von Cape Canaveral Space Force Station

Loading…

Nächste Überflüge (nächste 24 Stunden)

TLE

AktuellSource: CelesTrak SupGP

Epoche: Sep 14, 2026, 22:16 UTC

1 54809C 22175BD  26257.92826389  .00025901  00000+0  76523-3 0  2571
2 54809  53.1578 243.4537 0001313  93.9461 107.6723 15.34378090    12

Verfolge STARLINK-5414 in Echtzeit mit AllMySat

Download on the App Store